User: anonymous   Login
Location: *
(90.0000°N, 180.0000°W)
Time: 13:22:43
(UTC+01:00)
Language:

Cosmos 1825 - Orbit

View from above orbital plane
View from above orbital plane
View from above satellite
View from above satellite

Ground track
Ground track

The orbit data is extracted from the following two-line orbital elements,

1 17566U 87024A   17056.88929508  .00001576  00000-0  74995-4 0  9991
2 17566  82.5041  40.4777 0002416 227.5148 132.5882 15.18455964636954
Epoch (UTC): 25 February 2017 21:20:35
Eccentricity: 0.0002416
inclination: 82.5041°
perigee height: 509 km
apogee height: 512 km
right ascension of ascending node: 40.4777°
argument of perigee: 227.5148°
revolutions per day: 15.18455964
mean anomaly at epoch: 132.5882°
orbit number at epoch: 63695

The dashed part of the orbit path shows where the satellite is in the earth's shadow,  

DLR